Superior, WI

2:41 PM CDT on June 22, 2018 (GMT -0500)
Bong

Weather History for KSUW - December, 2017

Change the Weather History Date:

Thursday, December 7, 2017

  Actual Average Record
Temperature  
Mean Temperature 15 °F -  
Max Temperature 24 °F 25 °F 44 °F (1990)
Min Temperature 6 °F 10 °F -25 °F (1976)
Degree Days  
Heating Degree Days 50    
Moisture  
Dew Point 5 °F    
Average Humidity 62    
Maximum Humidity 75    
Minimum Humidity 44    
Precipitation  
Precipitation 0.00 in - - ()
Sea Level Pressure  
Sea Level Pressure 30.06 in    
Wind  
Wind Speed 10 mph (WSW)    
Max Wind Speed 15 mph    
Max Gust Speed 23 mph    
Visibility 10 miles    
Events      
Averages and records for this station are not official NWS values.
T = Trace of Precipitation, MM = Missing Value Source: NWS Daily Summary

Daily Weather History Graph

Daily Weather History Graph

Search for Another Location

Airport or City:

Astronomy

Dec. 07, 2017 Rise Set
Actual Time 7:39 AM CST 4:20 PM CST
Civil Twilight 7:04 AM CST 4:55 PM CST
Nautical Twilight 6:26 AM CST 5:33 PM CST
Astronomical Twilight 5:49 AM CST 6:10 PM CST
Moon 9:15 PM CST (12/7) 11:13 AM CST (12/7)
Length of Visible Light 9h 50m
Length of Day
8h 41m
Waning Gibbous, 77% of the Moon is Illuminated
Dec 7
Waning Gibbous
Dec 10
Last Quarter
Dec 18
New
Dec 26
First Quarter
Jan 1
Full

Hourly Weather History & Observations

Time (CST) Temp. Windchill Dew Point Humidity Pressure Visibility Wind Dir Wind Speed Gust Speed Precip Events Conditions
12:15 AM 10.4 °F -4.1 °F 2.1 °F 69% 30.21 in 10.0 mi NW 11.5 mph 20.7 mph N/A   Clear
12:35 AM 10.4 °F -4.8 °F 1.6 °F 68% 30.21 in 10.0 mi WNW 12.7 mph 19.6 mph N/A   Clear
12:55 AM 10.4 °F -4.8 °F 1.6 °F 68% 30.21 in 10.0 mi NW 12.7 mph 17.3 mph N/A   Clear
1:15 AM 10.2 °F -3.5 °F 1.6 °F 68% 30.21 in 10.0 mi WNW 10.4 mph 17.3 mph N/A   Clear
1:35 AM 10.0 °F -3.7 °F 1.4 °F 68% 30.21 in 10.0 mi NW 10.4 mph - N/A   Clear
1:55 AM 9.9 °F -4.7 °F 1.4 °F 69% 30.22 in 10.0 mi NW 11.5 mph - N/A   Clear
2:15 AM 9.3 °F -5.4 °F 1.4 °F 70% 30.23 in 10.0 mi NW 11.5 mph - N/A   Clear
2:35 AM 9.1 °F -6.4 °F 1.2 °F 70% 30.22 in 10.0 mi NW 12.7 mph - N/A   Clear
2:55 AM 8.6 °F -3.7 °F 1.0 °F 71% 30.23 in 10.0 mi NW 8.1 mph - N/A   Clear
3:15 AM 8.2 °F -5.1 °F 1.2 °F 73% 30.23 in 10.0 mi WNW 9.2 mph - N/A   Clear
3:35 AM 7.9 °F -5.5 °F 0.5 °F 72% 30.23 in 10.0 mi WNW 9.2 mph - N/A   Clear
3:55 AM 7.7 °F -5.8 °F 0.5 °F 72% 30.23 in 10.0 mi WNW 9.2 mph - N/A   Clear
4:15 AM 7.3 °F -4.1 °F -0.4 °F 71% 30.23 in 10.0 mi West 6.9 mph - N/A   Clear
4:35 AM 6.8 °F -3.5 °F 0.3 °F 75% 30.22 in 10.0 mi West 5.8 mph - N/A   Clear
4:55 AM 6.6 °F -5.0 °F -0.4 °F 73% 30.21 in 10.0 mi WSW 6.9 mph - N/A   Clear
5:15 AM 6.8 °F -4.8 °F 0.3 °F 75% 30.22 in 10.0 mi West 6.9 mph - N/A   Scattered Clouds
5:35 AM 7.5 °F -2.6 °F 0.1 °F 72% 30.21 in 10.0 mi WSW 5.8 mph - N/A   Mostly Cloudy
5:55 AM 8.1 °F -2.0 °F 0.7 °F 72% 30.21 in 10.0 mi WSW 5.8 mph - N/A   Overcast
6:15 AM 7.7 °F -3.7 °F 0.9 °F 74% 30.21 in 10.0 mi SW 6.9 mph - N/A   Overcast
6:35 AM 8.2 °F -4.1 °F 0.7 °F 71% 30.20 in 10.0 mi SW 8.1 mph - N/A   Overcast
6:55 AM 8.2 °F -4.1 °F 0.5 °F 71% 30.19 in 10.0 mi WSW 8.1 mph - N/A   Overcast
7:15 AM 8.4 °F -4.9 °F 0.5 °F 70% 30.19 in 10.0 mi WSW 9.2 mph - N/A   Overcast
7:35 AM 8.4 °F -5.7 °F 0.5 °F 70% 30.18 in 10.0 mi WSW 10.4 mph - N/A   Overcast
7:55 AM 9.0 °F -4.2 °F 1.0 °F 70% 30.18 in 10.0 mi WSW 9.2 mph - N/A   Overcast
8:15 AM 9.3 °F -4.6 °F 1.0 °F 69% 30.17 in 10.0 mi WSW 10.4 mph - N/A   Overcast
8:35 AM 9.9 °F -3.1 °F 0.9 °F 67% 30.16 in 10.0 mi WSW 9.2 mph - N/A   Overcast
8:55 AM 10.4 °F -1.5 °F 1.4 °F 67% 30.16 in 10.0 mi WSW 8.1 mph - N/A   Mostly Cloudy
9:15 AM 11.7 °F 1.1 °F 1.8 °F 65% 30.16 in 10.0 mi WSW 6.9 mph - N/A   Mostly Cloudy
9:35 AM 12.7 °F -0.4 °F 2.1 °F 63% 30.16 in 10.0 mi WSW 10.4 mph - N/A   Overcast
9:55 AM 13.5 °F 0.5 °F 2.3 °F 61% 30.14 in 10.0 mi WSW 10.4 mph - N/A   Overcast
10:15 AM 14.2 °F 2.2 °F 2.3 °F 59% 30.14 in 10.0 mi WSW 9.2 mph 17.3 mph N/A   Overcast
10:35 AM 14.4 °F 0.9 °F 2.3 °F 59% 30.13 in 10.0 mi WSW 11.5 mph - N/A   Overcast
10:55 AM 14.4 °F 3.3 °F 2.3 °F 59% 30.11 in 10.0 mi SW 8.1 mph - N/A   Mostly Cloudy
11:15 AM 17.8 °F 4.6 °F 3.4 °F 53% 30.09 in 10.0 mi WSW 12.7 mph 17.3 mph N/A   Scattered Clouds
11:35 AM 19.2 °F 6.4 °F 3.0 °F 49% 30.08 in 10.0 mi WSW 12.7 mph 17.3 mph N/A   Scattered Clouds
11:55 AM 18.3 °F 5.2 °F 3.0 °F 51% 30.07 in 10.0 mi WSW 12.7 mph 19.6 mph N/A   Scattered Clouds
12:15 PM 20.7 °F 7.6 °F 4.1 °F 49% 30.06 in 10.0 mi SW 13.8 mph - N/A   Scattered Clouds
12:40 PM 21.2 °F 10.1 °F 4.5 °F 49% 30.04 in 10.0 mi WSW 10.4 mph 18.4 mph N/A   Scattered Clouds
1:15 PM 21.9 °F 10.4 °F 5.2 °F 49% 30.02 in 10.0 mi SW 11.5 mph - N/A   Scattered Clouds
1:35 PM 22.8 °F 10.9 °F 5.5 °F 48% 30.01 in 10.0 mi WSW 12.7 mph - N/A   Mostly Cloudy
1:55 PM 23.0 °F 10.1 °F 5.5 °F 47% 30.00 in 10.0 mi WSW 15.0 mph 20.7 mph N/A   Overcast
2:15 PM 23.9 °F 11.2 °F 5.9 °F 46% 29.99 in 10.0 mi WSW 15.0 mph 20.7 mph N/A   Overcast
2:35 PM 24.3 °F 12.2 °F 5.4 °F 45% 29.98 in 10.0 mi WSW 13.8 mph 21.9 mph N/A   Overcast
2:55 PM 24.4 °F 14.9 °F 5.9 °F 45% 29.97 in 10.0 mi WSW 9.2 mph 18.4 mph N/A   Overcast
3:15 PM 24.4 °F 15.6 °F 5.7 °F 45% 29.97 in 10.0 mi WSW 8.1 mph 17.3 mph N/A   Overcast
3:35 PM 24.4 °F 13.0 °F 5.4 °F 44% 29.97 in 10.0 mi WSW 12.7 mph 19.6 mph N/A   Overcast
3:55 PM 23.7 °F 11.5 °F 5.7 °F 46% 29.96 in 10.0 mi WSW 13.8 mph 18.4 mph N/A   Overcast
4:15 PM 23.4 °F 12.2 °F 5.9 °F 47% 29.96 in 10.0 mi SW 11.5 mph - N/A   Overcast
4:35 PM 23.0 °F 12.4 °F 6.3 °F 49% 29.95 in 10.0 mi SW 10.4 mph - N/A   Overcast
4:55 PM 23.0 °F 13.1 °F 6.6 °F 50% 29.94 in 10.0 mi SW 9.2 mph - N/A   Overcast
5:15 PM 22.8 °F 11.5 °F 6.8 °F 50% 29.93 in 10.0 mi SW 11.5 mph - N/A   Mostly Cloudy
5:35 PM 22.8 °F 10.4 °F 6.8 °F 50% 29.93 in 10.0 mi WSW 13.8 mph 21.9 mph N/A   Overcast
6:00 PM 22.6 °F 11.3 °F 7.3 °F 52% 29.92 in 10.0 mi WSW 11.5 mph 17.3 mph N/A   Overcast
6:15 PM 22.6 °F 9.6 °F 7.5 °F 52% 29.91 in 10.0 mi WSW 15.0 mph 23.0 mph N/A   Overcast
6:35 PM 22.8 °F 9.9 °F 7.7 °F 52% 29.92 in 10.0 mi WSW 15.0 mph 19.6 mph N/A   Overcast
6:55 PM 22.6 °F 11.3 °F 8.4 °F 55% 29.91 in 10.0 mi WSW 11.5 mph - N/A   Overcast
7:15 PM 22.3 °F 11.5 °F 8.8 °F 56% 29.91 in 10.0 mi WSW 10.4 mph 17.3 mph N/A   Overcast
7:35 PM 21.9 °F 11.7 °F 9.5 °F 59% 29.91 in 10.0 mi WSW 9.2 mph 17.3 mph N/A   Overcast
7:55 PM 21.4 °F 9.1 °F 10.6 °F 63% 29.90 in 10.0 mi WSW 12.7 mph 19.6 mph N/A   Scattered Clouds
8:15 PM 21.2 °F 10.9 °F 11.3 °F 66% 29.89 in 10.0 mi SW 9.2 mph - N/A   Mostly Cloudy
8:35 PM 20.8 °F 9.7 °F 11.3 °F 67% 29.88 in 10.0 mi SW 10.4 mph - N/A   Overcast
8:55 PM 20.3 °F 9.8 °F 11.3 °F 68% 29.88 in 10.0 mi SW 9.2 mph - N/A   Overcast
9:15 PM 20.7 °F 13.0 °F 11.7 °F 68% 29.88 in 10.0 mi SW 5.8 mph - N/A   Overcast
9:35 PM 20.8 °F 10.4 °F 12.2 °F 69% 29.87 in 10.0 mi SW 9.2 mph - N/A   Overcast
9:55 PM 21.0 °F 11.4 °F 12.2 °F 69% 29.87 in 10.0 mi SW 8.1 mph - N/A   Overcast
10:15 PM 21.2 °F 12.6 °F 12.9 °F 70% 29.86 in 10.0 mi SW 6.9 mph - N/A   Overcast
10:35 PM 21.2 °F 12.6 °F 13.1 °F 71% 29.86 in 10.0 mi SW 6.9 mph - N/A   Overcast
10:55 PM 21.9 °F 14.5 °F 13.8 °F 71% 29.86 in 10.0 mi SW 5.8 mph - N/A   Overcast
11:15 PM 21.9 °F 12.5 °F 14.4 °F 73% 29.85 in 10.0 mi SW 8.1 mph - N/A   Overcast
11:35 PM 22.1 °F 15.9 °F 14.7 °F 73% 29.85 in 10.0 mi SW 4.6 mph - N/A   Overcast